Home > Time Zones > World Clock > Weather > China > Wuhan > Past weeks

Flag for China Weather past 2 weeks in Wuhan, Hubei, China

Now
75 °F

Fog.


Feels Like: 74 °F
Forecast: 71 / 89 °F
Wind: No wind

Location: Wuhan Airport

Current Time: Aug 29, 2015 at 6:50:11 AM

Latest Report: Aug 29, 2015 at 5:00 AM


Visibility: 3 mi

Pressure: 29.74 "Hg

Humidity: 94%

Dew point: 73 °F

Location of WuhanLocation

Historic Weather in Wuhan — Graph

°F

Wuhan temperature yesterday

Maximum temperature yesterday: 90 °F (at 12:00 PM)
Minimum temperature yesterday: 75 °F (at 3:00 AM)
Average temperature yesterday: 82 °F

Past Weeks' High & Low Weather Summary

 TemperatureHumidityPressure
High93 °F (Aug 14, 2:00 PM)100% (Aug 15, 11:00 AM)29.86 "Hg (Aug 15, 11:00 AM)
Low70 °F (Aug 19, 10:00 AM)39% (Aug 23, 3:00 PM)29.59 "Hg (Aug 14, 4:00 PM)
Average81 °F77%29.74 "Hg
* Reported Aug 14 5:00 AM — Aug 29 5:00 AM, Wuhan, Weather by CustomWeather, © 2015

Note: Actual official high and low records may vary slightly from our data, if they occured in-between our weather recording intervals... More about our weather records

Advertising

Wuhan weather history for previous 24 hours

 ConditionsComfort  
Time TempWeatherWind HumidityBarometerVisibility
5:00 AM
Sat, Aug 29
75 °FFog.No wind94%29.74 "Hg2 mi
4:00 AM75 °FFog.No wind89%29.74 "Hg3 mi
3:00 AM75 °FFog.No wind94%29.74 "Hg3 mi
2:00 AM77 °FFog.1 mph89%29.77 "Hg2 mi
1:00 AM79 °FFog.No wind84%29.77 "Hg2 mi
12:00 AM79 °FFog.1 mph79%29.77 "Hg2 mi
11:00 PM
Fri, Aug 28
79 °FFog.8 mph79%29.77 "Hg2 mi
10:00 PM79 °FFog.3 mph84%29.77 "Hg2 mi
9:00 PM79 °FFog.3 mph84%29.77 "Hg2 mi
8:00 PM81 °FFog.1 mph74%29.74 "Hg3 mi
7:00 PM81 °FHaze.6 mph66%29.71 "Hg3 mi
6:00 PM88 °FHaze.1 mph62%29.71 "Hg3 mi
5:00 PM88 °FHaze.1 mph62%29.71 "Hg3 mi
4:00 PM90 °FScattered clouds.3 mph59%29.71 "Hg4 mi
3:00 PM86 °FScattered clouds.3 mph66%29.71 "Hg4 mi
2:00 PM88 °FHaze.1 mph62%29.74 "Hg3 mi
1:00 PM90 °FHaze.3 mph63%29.77 "Hg3 mi
12:00 PM90 °FHaze.3 mph55%29.80 "Hg2 mi
11:00 AM86 °FHaze.3 mph66%29.80 "Hg2 mi
10:00 AM84 °FHaze.6 mph70%29.80 "Hg3 mi
9:00 AM82 °FHaze.6 mph70%29.80 "Hg3 mi
8:00 AM79 °FFog.8 mph74%29.80 "Hg2 mi
7:00 AM77 °FFog.3 mph83%29.80 "Hg2 mi
6:00 AM75 °FFog.6 mph89%29.77 "Hg2 mi
Weather by CustomWeather, © 2015

See weather overviewHow to use our weather pages